Wind_Speed
83 85 86 88 89 90 91 93 96 99 103 107 111 114 116 118 120 124 126 126 127 127 128 129 130 130 127 125 125 125 121 116 114 110 108 105 104 101 101 100 102 102 105
87 89 91 92 94 95 98 100 103 107 110 113 115 118 122 124 124 125 128 129 129 131 132 130 131 131 130 125 119 118 112 112 110 108 107 103 101 99 102 101 103 105 108
91 92 93 95 98 99 102 105 108 111 115 119 121 122 124 126 128 131 134 136 135 131 132 132 130 126 120 116 116 115 112 111 106 102 101 103 98 99 102 104 105 106 109
96 98 100 102 103 106 108 110 114 117 118 121 124 126 129 132 135 137 137 135 134 134 133 127 120 117 116 118 118 118 115 109 109 104 103 98 99 100 103 104 105 106 106
102 104 104 105 107 110 113 115 117 120 123 125 129 132 134 138 138 138 137 138 137 131 120 116 115 117 115 115 117 115 113 109 108 104 102 97 96 96 101 102 104 104 104
104 107 110 111 113 115 117 119 122 124 128 131 134 136 138 139 140 139 140 139 124 117 117 117 115 114 113 114 110 108 106 105 100 97 98 93 93 91 94 97 98 98 98
111 113 115 115 117 119 121 124 126 130 134 136 137 138 139 139 141 139 130 120 118 114 112 108 106 105 101 97 95 95 91 87 84 79 82 85 84 84 85 87 88 90 90
115 116 117 118 120 123 125 129 133 136 136 139 140 139 141 142 138 127 122 116 112 106 102 95 90 85 82 79 77 74 69 68 65 65 67 71 74 74 74 77 80 81 82
117 117 120 122 125 129 132 134 136 137 139 139 141 141 141 134 123 117 114 108 98 88 84 79 73 69 67 64 62 60 59 57 54 54 56 59 60 62 65 68 71 73 75
121 121 124 127 130 133 135 133 138 138 140 142 142 140 128 121 112 109 101 90 83 78 72 67 63 60 58 55 53 50 48 46 46 47 47 49 50 53 58 62 65 68 70
123 127 128 132 131 133 136 136 137 139 140 140 132 122 120 108 105 95 86 78 73 69 63 59 56 52 49 46 44 42 39 37 38 39 40 43 47 51 56 59 63 67 71
127 129 130 132 134 136 136 137 138 138 132 125 123 119 110 101 90 81 73 68 64 60 56 52 46 42 40 39 37 34 31 32 33 35 39 43 47 52 57 62 67 69 71
129 131 133 134 135 136 138 136 132 124 121 120 115 113 109 92 79 72 67 62 57 52 48 42 38 36 34 33 30 27 26 30 32 35 40 46 51 56 60 64 69 71 71
131 132 133 134 137 136 131 124 115 114 115 110 112 109 94 80 74 68 61 57 50 46 41 36 32 28 27 26 23 25 26 30 34 39 43 48 53 58 63 67 71 73 73
132 127 127 131 130 123 117 114 112 113 107 106 100 85 74 69 65 60 54 48 42 38 34 30 25 24 22 22 23 26 30 35 39 43 47 51 57 61 65 70 73 74 73
125 124 120 116 115 113 112 110 102 101 99 89 78 69 64 59 54 50 47 42 37 34 30 28 25 23 21 23 26 29 33 38 43 47 52 56 60 65 68 71 74 76 77
107 109 111 111 110 108 103 97 95 89 77 70 63 57 53 49 46 44 41 37 31 30 28 26 24 22 23 26 29 32 35 40 45 51 56 61 64 68 72 74 76 78 77
106 107 107 105 101 95 93 87 74 68 62 57 52 48 46 44 41 38 35 31 28 26 24 22 22 23 24 28 32 36 40 43 48 54 60 65 68 71 74 77 78 80 78
104 103 99 96 92 85 73 66 60 53 49 46 43 44 42 40 37 33 32 27 24 22 22 22 23 26 29 33 37 42 45 49 53 59 64 68 72 74 76 79 81 79 77
92 91 88 80 71 65 57 50 45 43 41 39 38 36 35 35 32 29 26 21 18 18 20 23 26 29 32 37 42 46 50 54 58 63 67 72 74 77 78 81 81 81 76
83 75 68 60 54 48 43 39 37 37 35 32 32 29 29 27 23 19 15 15 16 19 23 26 29 33 38 42 46 51 54 59 62 67 71 75 77 76 78 81 80 78 75
60 52 48 43 38 36 34 34 32 31 27 23 21 19 19 16 14 14 15 17 19 23 27 31 34 38 41 45 50 54 58 62 66 70 74 76 78 76 78 80 79 76 74
40 33 32 31 29 28 27 25 23 20 17 14 13 13 14 15 16 18 22 24 26 29 31 34 37 40 45 49 54 58 62 66 70 74 75 77 77 75 77 79 77 76 75
26 26 26 24 22 20 17 14 13 13 13 15 17 18 19 21 23 25 27 30 32 34 36 38 41 46 49 53 57 61 65 69 72 74 74 77 77 74 77 78 76 75 75
19 17 15 14 12 10 11 13 15 18 19 20 22 25 26 26 29 30 32 33 35 37 39 42 46 50 53 56 59 64 68 72 74 75 74 76 76 73 76 77 76 74 73
10 11 12 13 14 16 18 20 22 25 27 28 29 31 32 33 32 34 36 38 39 40 42 45 49 52 56 58 61 66 71 75 76 74 75 76 75 74 76 76 75 73 72
Wind_Direction
283 284 284 285 286 287 288 289 289 290 291 292 293 295 296 297 298 299 300 300 301 302 302 302 300 299 299 298 297 296 296 295 293 291 289 287 287 286 285 284 284 284 284
284 285 286 287 288 288 289 289 290 291 293 294 295 296 297 299 300 301 302 303 302 301 302 302 301 301 300 298 297 295 292 291 289 288 287 288 287 287 286 284 285 286 285
286 285 286 287 287 289 290 291 293 294 295 296 298 299 299 301 302 302 303 303 303 303 302 302 301 300 299 296 293 290 288 288 287 286 285 283 284 285 286 286 286 287 288
285 287 287 289 291 291 292 293 294 296 297 298 299 301 302 302 303 302 302 302 302 302 302 302 300 297 294 292 290 288 289 286 286 286 285 283 284 284 284 286 288 289 289
286 287 288 289 290 291 293 294 296 297 298 300 301 301 301 302 302 302 302 302 303 304 302 297 295 293 291 290 291 289 289 287 287 286 284 285 282 282 282 284 286 289 292
286 286 288 289 291 293 294 295 296 297 299 301 301 301 302 301 303 303 303 303 304 301 298 297 295 294 292 292 294 291 291 291 288 285 285 283 283 285 286 286 290 292 293
286 287 289 291 292 293 295 296 297 298 299 301 301 302 303 302 303 305 306 305 303 300 298 297 296 296 295 295 295 293 293 292 292 285 285 282 283 284 287 289 290 293 295
288 289 290 292 292 294 295 296 298 299 300 302 301 302 303 305 307 308 307 305 303 301 300 301 299 299 298 296 294 293 294 293 293 290 286 284 285 288 290 292 294 295 296
288 289 290 292 291 294 296 297 299 300 301 302 303 304 305 308 309 308 306 306 305 307 304 302 301 301 301 301 300 297 295 295 294 292 293 291 289 291 295 297 298 302 303
289 289 290 291 292 295 297 297 299 301 302 303 305 307 307 310 310 309 308 306 309 307 308 307 306 305 304 302 301 299 296 297 296 294 295 297 299 301 302 303 305 306 307
286 288 290 291 295 295 296 298 300 301 303 305 305 306 309 309 310 309 309 310 310 310 312 312 310 309 306 305 303 301 301 300 299 300 303 305 307 309 310 310 312 314 314
287 289 290 293 294 295 298 300 301 303 303 305 306 309 309 312 312 313 313 314 315 315 314 312 313 314 312 308 305 305 307 306 308 311 313 315 317 318 319 319 318 317 317
288 290 291 293 296 297 298 299 302 302 303 306 309 310 312 312 313 315 317 316 315 316 315 317 317 313 310 309 310 315 317 317 320 320 324 327 326 326 324 321 320 320 320
289 291 292 293 294 295 299 300 301 302 305 306 308 309 309 311 315 317 318 316 316 317 318 315 314 314 314 317 321 323 327 328 330 331 332 330 327 326 325 324 324 323 323
289 291 290 292 294 296 299 300 301 303 305 306 306 306 307 310 312 314 315 316 317 317 315 313 316 317 319 323 331 333 337 336 333 333 331 329 328 327 328 328 327 326 327
286 290 290 292 293 296 298 300 302 303 303 304 302 304 306 307 307 308 310 313 315 314 315 316 317 317 325 333 335 339 336 333 332 331 329 328 328 328 329 330 330 330 331
286 288 290 292 295 297 300 301 302 301 299 298 300 304 304 302 303 304 306 308 311 311 314 315 319 325 333 337 339 336 333 331 331 330 329 329 330 332 332 332 332 332 332
286 289 292 295 296 298 300 299 298 297 297 299 302 300 299 299 301 302 304 305 309 309 312 318 324 333 337 338 336 333 331 332 332 332 331 331 333 334 334 333 333 333 333
288 291 293 296 298 298 297 296 296 298 299 299 297 297 299 297 301 303 303 304 309 313 318 324 330 334 334 333 333 332 332 333 335 334 333 333 334 335 334 334 334 333 333
290 293 294 295 294 294 294 294 296 298 297 295 295 296 299 299 304 305 304 305 313 320 324 327 327 328 331 333 332 332 333 334 335 334 334 333 334 335 335 334 334 333 336
292 291 290 290 291 292 293 296 295 292 293 295 295 298 300 303 306 308 311 316 320 322 320 320 326 331 332 332 332 332 333 334 334 335 335 334 334 335 335 334 334 334 336
286 286 287 290 294 296 294 292 293 295 297 299 305 309 311 311 312 317 322 322 320 318 319 323 327 329 329 330 331 332 333 333 334 335 335 333 333 334 334 334 335 336 337
285 290 294 295 294 292 293 295 296 298 302 309 315 317 319 316 316 318 318 316 316 317 319 321 324 326 328 330 332 332 332 333 334 334 334 331 332 334 334 335 336 338 338
292 291 287 290 293 295 295 295 300 303 309 313 312 308 308 308 310 310 310 312 313 315 319 321 322 325 328 331 331 332 331 332 332 332 332 329 331 333 334 335 336 338 338
290 290 292 292 290 292 298 301 302 302 302 303 304 303 303 303 303 305 307 309 312 315 318 320 323 325 328 329 329 329 329 329 330 331 330 328 330 332 333 334 336 338 338
296 291 289 291 295 297 297 299 302 302 304 305 304 303 302 303 303 305 308 310 312 315 318 320 323 324 325 326 327 326 326 328 328 330 329 327 329 331 332 334 335 337 338
Height
10632 10628 10623 10618 10614 10610 10603 10597 10590 10583 10575 10567 10558 10549 10539 10531 10523 10512 10500 10488 10479 10467 10453 10439 10424 10410 10399 10387 10374 10360 10346 10335 10324 10314 10308 10299 10293 10287 10279 10271 10265 10257 10251
10614 10609 10605 10601 10596 10590 10584 10577 10569 10560 10552 10543 10534 10524 10515 10505 10494 10483 10470 10458 10448 10433 10420 10406 10390 10375 10359 10348 10337 10323 10312 10300 10292 10284 10274 10266 10259 10253 10246 10239 10233 10227 10220
10594 10589 10586 10581 10576 10571 10563 10555 10547 10537 10528 10518 10508 10498 10487 10478 10466 10454 10438 10425 10414 10399 10386 10371 10355 10340 10323 10310 10299 10287 10276 10267 10260 10254 10247 10239 10233 10224 10216 10210 10204 10197 10188
10572 10568 10563 10559 10555 10547 10539 10532 10523 10514 10504 10493 10482 10471 10458 10445 10433 10419 10406 10392 10382 10368 10352 10334 10317 10303 10288 10275 10263 10252 10246 10238 10231 10228 10220 10214 10209 10200 10190 10184 10180 10173 10163
10551 10547 10543 10538 10532 10525 10518 10509 10500 10489 10478 10467 10457 10444 10430 10416 10402 10388 10373 10358 10344 10329 10312 10293 10280 10265 10251 10239 10229 10220 10216 10208 10202 10199 10192 10187 10181 10175 10167 10160 10152 10148 10137
10532 10526 10522 10517 10511 10502 10493 10485 10475 10463 10452 10441 10429 10416 10400 10385 10370 10355 10337 10321 10307 10290 10271 10255 10242 10231 10218 10207 10199 10191 10186 10182 10177 10173 10167 10160 10155 10151 10146 10140 10133 10124 10115
10511 10505 10500 10495 10486 10477 10469 10459 10449 10437 10425 10413 10399 10384 10369 10353 10337 10321 10301 10285 10270 10254 10237 10223 10211 10202 10190 10180 10173 10165 10158 10153 10148 10143 10141 10138 10134 10130 10125 10119 10112 10106 10097
10487 10480 10476 10470 10460 10451 10442 10433 10422 10411 10397 10384 10368 10355 10337 10320 10303 10288 10270 10250 10235 10221 10206 10193 10184 10173 10164 10156 10149 10142 10137 10132 10127 10124 10122 10119 10115 10112 10106 10099 10092 10086 10080
10462 10459 10451 10442 10434 10425 10417 10407 10394 10382 10369 10355 10338 10325 10308 10291 10275 10257 10238 10221 10207 10193 10181 10169 10161 10151 10142 10136 10130 10125 10121 10116 10112 10108 10106 10103 10099 10094 10090 10084 10076 10068 10060
10441 10432 10425 10417 10408 10399 10391 10379 10368 10356 10341 10323 10308 10294 10278 10265 10248 10230 10212 10196 10186 10173 10161 10150 10141 10134 10126 10120 10116 10111 10107 10103 10100 10096 10094 10091 10086 10081 10076 10070 10063 10053 10043
10415 10407 10399 10392 10383 10372 10363 10355 10343 10327 10312 10297 10283 10266 10253 10239 10223 10205 10189 10177 10165 10154 10143 10134 10126 10119 10113 10108 10104 10100 10096 10093 10091 10087 10083 10079 10075 10071 10066 10057 10048 10038 10025
10390 10381 10373 10366 10356 10345 10336 10326 10314 10301 10285 10269 10254 10240 10225 10214 10200 10185 10172 10159 10150 10140 10132 10124 10116 10109 10104 10100 10095 10092 10088 10086 10083 10079 10075 10071 10066 10059 10052 10043 10032 10023 10011
10365 10357 10347 10338 10329 10319 10310 10298 10287 10274 10261 10248 10232 10216 10202 10192 10182 10170 10157 10147 10139 10130 10123 10115 10108 10103 10098 10094 10089 10085 10083 10080 10077 10073 10068 10062 10055 10048 10039 10030 10018 10005 9993
10339 10330 10322 10312 10302 10291 10285 10274 10264 10251 10241 10226 10212 10200 10187 10175 10166 10156 10148 10139 10130 10122 10115 10109 10104 10099 10095 10090 10086 10082 10079 10075 10070 10065 10059 10053 10046 10037 10026 10014 10001 9987 9972
10314 10305 10295 10285 10276 10267 10259 10250 10242 10229 10217 10206 10194 10184 10174 10164 10155 10147 10140 10132 10123 10116 10111 10106 10101 10096 10091 10087 10082 10079 10073 10069 10064 10058 10052 10045 10036 10026 10015 10000 9986 9971 9958
10285 10275 10266 10259 10251 10244 10235 10226 10218 10207 10197 10188 10179 10170 10162 10153 10147 10140 10133 10126 10119 10113 10107 10103 10098 10093 10088 10083 10078 10073 10069 10064 10058 10051 10044 10035 10025 10013 10001 9988 9973 9956 9940
10258 10251 10244 10236 10229 10222 10213 10205 10195 10187 10179 10171 10164 10156 10150 10144 10138 10133 10126 10120 10114 10109 10104 10099 10094 10089 10084 10079 10074 10069 10065 10059 10052 10043 10034 10024 10013 10001 9987 9973 9958 9943 9927
10234 10228 10220 10213 10205 10199 10192 10184 10175 10169 10162 10155 10149 10143 10140 10135 10130 10125 10119 10113 10108 10104 10099 10095 10090 10085 10080 10076 10070 10065 10059 10052 10044 10034 10023 10012 10000 9988 9974 9960 9946 9930 9915
10212 10205 10197 10189 10184 10178 10171 10164 10158 10153 10147 10142 10138 10133 10130 10125 10121 10116 10111 10107 10102 10099 10095 10091 10086 10081 10076 10071 10065 10059 10051 10043 10034 10024 10012 10000 9988 9976 9963 9948 9933 9920 9905
10190 10184 10178 10171 10165 10160 10154 10149 10144 10140 10136 10133 10129 10125 10121 10116 10113 10109 10105 10101 10097 10094 10091 10087 10083 10078 10072 10065 10058 10051 10043 10034 10025 10015 10002 9990 9977 9964 9951 9936 9921 9905 9892
10171 10167 10160 10155 10151 10145 10141 10137 10134 10131 10128 10125 10121 10117 10112 10109 10105 10101 10099 10096 10092 10089 10086 10082 10077 10071 10064 10058 10050 10043 10035 10025 10015 10004 9992 9979 9966 9954 9941 9926 9911 9896 9881
10155 10150 10146 10142 10138 10134 10131 10129 10126 10123 10119 10116 10112 10109 10106 10104 10100 10097 10094 10092 10089 10085 10080 10075 10069 10063 10057 10050 10043 10034 10025 10015 10005 9993 9980 9968 9955 9944 9930 9915 9900 9886 9872
10142 10138 10135 10132 10130 10127 10124 10121 10118 10116 10114 10111 10107 10105 10103 10100 10097 10092 10089 10085 10081 10078 10073 10067 10061 10056 10049 10041 10033 10024 10014 10004 9993 9982 9970 9957 9945 9933 9920 9905 9891 9876 9863
10131 10130 10127 10125 10122 10120 10118 10116 10114 10112 10110 10107 10104 10101 10098 10095 10091 10087 10083 10078 10073 10069 10063 10058 10052 10046 10038 10030 10022 10013 10003 9993 9984 9973 9961 9947 9935 9923 9910 9895 9881 9867 9853
10126 10124 10122 10120 10118 10116 10114 10112 10110 10108 10105 10102 10099 10095 10092 10089 10084 10080 10076 10071 10066 10060 10055 10049 10042 10034 10027 10019 10011 10002 9992 9982 9973 9963 9950 9937 9925 9913 9900 9886 9872 9859 9845
10123 10121 10119 10117 10115 10112 10110 10108 10105 10102 10098 10096 10093 10089 10085 10081 10077 10072 10067 10062 10057 10051 10045 10038 10032 10024 10016 10008 10000 9991 9981 9970 9960 9952 9939 9926 9914 9903 9890 9876 9864 9851 9837